{"data":{"norad_id":52123,"intl_designator":"2022-029AM","name":"STARLINK-3725","alt_names":[],"object_type":"PAYLOAD","status":"ACTIVE","operator":null,"country":"US","launch_date":"2022-03-19","launch_site_code":"AFETR","launch_vehicle":null,"mission":null,"orbit_class":"UNKNOWN","rcs_meters":null,"size_class":null,"mass_kg":null,"dimensions":null,"purposes":["comms"],"wikipedia_slug":null,"has_3d_model":false,"image_url":null,"decayed_at":null,"tle_current":{"epoch":"2026-05-25T02:48:37.060704Z","epoch_age_seconds":58959,"freshness":"FRESH","line1":"1 52123U 22029AM  26145.11709561  .00001503  00000+0  11247-3 0  9992","line2":"2 52123  53.2138  85.8458 0001452 130.1013 230.0107 15.08845398232478","mean_motion":15.08845398,"eccentricity":0.0001452,"inclination_deg":53.2138,"raan_deg":85.8458,"arg_perigee_deg":130.1013,"mean_anomaly_deg":230.0107,"bstar":0.00011247,"rev_number":23247,"period_min":95.437213243235,"perigee_km":538.72241565004,"apogee_km":540.73136332355,"semimajor_km":6917.8638894868,"source":"CELESTRAK","updated_at":"2026-05-25T13:38:17.076141Z"}}}